Time,TemperatureF,DewpointF,PressureIn,WindDirection,WindDirectionDegrees,WindSpeedMPH,WindSpeedGustMPH,Humidity,HourlyPrecipIn,Conditions,Clouds,dailyrainin,SoftwareType,DateUTC
2013-05-27 00:02:00,57.0,-99.9,30.13,West,259,5.0,9.0,-999,-99.99,,,-99.99,,2013-05-27 07:02:00,
2013-05-27 00:11:00,57.0,-99.9,30.13,WSW,246,8.0,15.0,-999,-99.99,,,-99.99,,2013-05-27 07:11:00,
2013-05-27 00:22:00,57.0,-99.9,30.13,West,273,7.0,13.0,-999,-99.99,,,-99.99,,2013-05-27 07:22:00,
2013-05-27 00:32:00,57.0,-99.9,30.13,West,267,4.0,10.0,-999,-99.99,,,-99.99,,2013-05-27 07:32:00,
2013-05-27 00:42:00,57.0,-99.9,30.12,WNW,296,8.0,12.0,-999,-99.99,,,-99.99,,2013-05-27 07:42:00,
2013-05-27 00:53:00,56.0,-99.9,30.12,West,275,3.0,9.0,-999,-99.99,,,-99.99,,2013-05-27 07:53:00,
2013-05-27 01:02:00,56.0,-99.9,30.12,West,275,3.0,9.0,-999,-99.99,,,-99.99,,2013-05-27 08:02:00,
2013-05-27 01:12:00,56.0,-99.9,30.12,SSW,207,3.0,4.0,-999,-99.99,,,-99.99,,2013-05-27 08:12:00,
2013-05-27 01:22:00,56.0,-99.9,30.13,SE,128,2.0,4.0,-999,-99.99,,,-99.99,,2013-05-27 08:22:00,
2013-05-27 01:33:00,58.0,-99.9,30.12,NW,320,9.0,12.0,-999,-99.99,,,-99.99,,2013-05-27 08:33:00,
2013-05-27 01:52:00,57.0,-99.9,30.12,NW,320,9.0,11.0,-999,-99.99,,,-99.99,,2013-05-27 08:52:00,
2013-05-27 02:02:00,57.0,-99.9,30.12,NW,318,6.0,9.0,-999,-99.99,,,-99.99,,2013-05-27 09:02:00,
2013-05-27 02:11:00,57.0,-99.9,30.12,NW,318,6.0,9.0,-999,-99.99,,,-99.99,,2013-05-27 09:11:00,
2013-05-27 02:22:00,57.0,-99.9,30.11,NW,323,8.0,13.0,-999,-99.99,,,-99.99,,2013-05-27 09:22:00,
2013-05-27 02:33:00,57.0,-99.9,30.11,WNW,296,7.0,11.0,-999,-99.99,,,-99.99,,2013-05-27 09:33:00,
2013-05-27 02:42:00,57.0,-99.9,30.11,NW,305,7.0,9.0,-999,-99.99,,,-99.99,,2013-05-27 09:42:00,
2013-05-27 02:53:00,57.0,-99.9,30.11,NW,306,8.0,12.0,-999,-99.99,,,-99.99,,2013-05-27 09:53:00,
2013-05-27 03:03:00,57.0,-99.9,30.11,WNW,301,9.0,13.0,-999,-99.99,,,-99.99,,2013-05-27 10:03:00,
2013-05-27 03:12:00,57.0,-99.9,30.10,WNW,299,8.0,11.0,-999,-99.99,,,-99.99,,2013-05-27 10:12:00,
2013-05-27 03:23:00,56.0,-99.9,30.10,WNW,300,7.0,10.0,-999,-99.99,,,-99.99,,2013-05-27 10:23:00,
2013-05-27 03:32:00,56.0,-99.9,30.10,WNW,293,7.0,10.0,-999,-99.99,,,-99.99,,2013-05-27 10:32:00,
2013-05-27 03:42:00,56.0,-99.9,30.10,WNW,292,9.0,11.0,-999,-99.99,,,-99.99,,2013-05-27 10:42:00,
2013-05-27 03:53:00,56.0,-99.9,30.10,WNW,296,8.0,12.0,-999,-99.99,,,-99.99,,2013-05-27 10:53:00,
2013-05-27 04:02:00,56.0,-99.9,30.10,West,277,6.0,9.0,-999,-99.99,,,-99.99,,2013-05-27 11:02:00,
2013-05-27 04:22:00,56.0,-99.9,30.09,NW,321,10.0,14.0,-999,-99.99,,,-99.99,,2013-05-27 11:22:00,
2013-05-27 04:32:00,56.0,-99.9,30.09,NW,307,8.0,13.0,-999,-99.99,,,-99.99,,2013-05-27 11:32:00,
2013-05-27 04:42:00,56.0,-99.9,30.09,WNW,303,10.0,13.0,-999,-99.99,,,-99.99,,2013-05-27 11:42:00,
2013-05-27 04:52:00,56.0,-99.9,30.09,West,262,6.0,13.0,-999,-99.99,,,-99.99,,2013-05-27 11:52:00,
2013-05-27 05:02:00,56.0,-99.9,30.09,WSW,241,5.0,12.0,-999,-99.99,,,-99.99,,2013-05-27 12:02:00,
2013-05-27 05:22:00,57.0,-99.9,30.09,WNW,297,7.0,10.0,-999,-99.99,,,-99.99,,2013-05-27 12:22:00,
2013-05-27 05:32:00,56.0,-99.9,30.09,WNW,295,4.0,11.0,-999,-99.99,,,-99.99,,2013-05-27 12:32:00,
2013-05-27 05:42:00,57.0,-99.9,30.09,NW,312,9.0,13.0,-999,-99.99,,,-99.99,,2013-05-27 12:42:00,
2013-05-27 05:52:00,57.0,-99.9,30.09,NW,307,9.0,13.0,-999,-99.99,,,-99.99,,2013-05-27 12:52:00,
2013-05-27 06:02:00,57.0,-99.9,30.09,WNW,302,7.0,11.0,-999,-99.99,,,-99.99,,2013-05-27 13:02:00,
2013-05-27 06:11:00,57.0,-99.9,30.09,NW,308,7.0,13.0,-999,-99.99,,,-99.99,,2013-05-27 13:11:00,
2013-05-27 06:22:00,57.0,-99.9,30.09,NW,308,8.0,11.0,-999,-99.99,,,-99.99,,2013-05-27 13:22:00,
2013-05-27 06:32:00,57.0,-99.9,30.09,NW,310,6.0,8.0,-999,-99.99,,,-99.99,,2013-05-27 13:32:00,
2013-05-27 06:42:00,57.0,-99.9,30.09,NW,310,6.0,8.0,-999,-99.99,,,-99.99,,2013-05-27 13:42:00,
2013-05-27 06:53:00,57.0,-99.9,30.09,NW,322,2.0,6.0,-999,-99.99,,,-99.99,,2013-05-27 13:53:00,
2013-05-27 07:02:00,57.0,-99.9,30.09,NW,322,2.0,6.0,-999,-99.99,,,-99.99,,2013-05-27 14:02:00,
2013-05-27 07:11:00,58.0,-99.9,30.09,SSW,209,1.0,4.0,-999,-99.99,,,-99.99,,2013-05-27 14:11:00,
2013-05-27 07:32:00,58.0,-99.9,30.09,WNW,296,11.0,15.0,-999,-99.99,,,-99.99,,2013-05-27 14:32:00,
2013-05-27 07:42:00,58.0,-99.9,30.10,WNW,298,12.0,17.0,-999,-99.99,,,-99.99,,2013-05-27 14:42:00,
2013-05-27 07:52:00,58.0,-99.9,30.10,NW,315,11.0,15.0,-999,-99.99,,,-99.99,,2013-05-27 14:52:00,
2013-05-27 08:02:00,58.0,-99.9,30.10,NW,317,11.0,14.0,-999,-99.99,,,-99.99,,2013-05-27 15:02:00,
2013-05-27 08:11:00,58.0,-99.9,30.09,WNW,301,9.0,13.0,-999,-99.99,,,-99.99,,2013-05-27 15:11:00,
2013-05-27 08:22:00,58.0,-99.9,30.09,NW,321,9.0,15.0,-999,-99.99,,,-99.99,,2013-05-27 15:22:00,
2013-05-27 08:33:00,58.0,-99.9,30.10,NW,313,10.0,13.0,-999,-99.99,,,-99.99,,2013-05-27 15:33:00,
2013-05-27 08:43:00,59.0,-99.9,30.10,NW,311,9.0,15.0,-999,-99.99,,,-99.99,,2013-05-27 15:43:00,
2013-05-27 08:53:00,59.0,-99.9,30.11,NW,314,5.0,7.0,-999,-99.99,,,-99.99,,2013-05-27 15:53:00,
2013-05-27 09:03:00,59.0,-99.9,30.10,NW,322,7.0,10.0,-999,-99.99,,,-99.99,,2013-05-27 16:03:00,
2013-05-27 09:12:00,59.0,-99.9,30.10,NW,311,10.0,14.0,-999,-99.99,,,-99.99,,2013-05-27 16:12:00,
2013-05-27 09:23:00,60.0,-99.9,30.10,NW,314,10.0,13.0,-999,-99.99,,,-99.99,,2013-05-27 16:23:00,
2013-05-27 09:33:00,60.0,-99.9,30.11,NW,315,12.0,15.0,-999,-99.99,,,-99.99,,2013-05-27 16:33:00,
2013-05-27 09:42:00,60.0,-99.9,30.10,NW,320,11.0,15.0,-999,-99.99,,,-99.99,,2013-05-27 16:42:00,
2013-05-27 10:02:00,60.0,-99.9,30.11,NW,320,11.0,16.0,-999,-99.99,,,-99.99,,2013-05-27 17:02:00,
2013-05-27 10:12:00,60.0,-99.9,30.10,NW,322,9.0,14.0,-999,-99.99,,,-99.99,,2013-05-27 17:12:00,
2013-05-27 10:22:00,60.0,-99.9,30.09,NW,309,6.0,10.0,-999,-99.99,,,-99.99,,2013-05-27 17:22:00,
2013-05-27 10:32:00,60.0,-99.9,30.09,WNW,300,8.0,12.0,-999,-99.99,,,-99.99,,2013-05-27 17:32:00,
2013-05-27 10:43:00,60.0,-99.9,30.09,NW,320,9.0,10.0,-999,-99.99,,,-99.99,,2013-05-27 17:43:00,
2013-05-27 10:52:00,60.0,-99.9,30.09,NNW,333,4.0,10.0,-999,-99.99,,,-99.99,,2013-05-27 17:52:00,
2013-05-27 11:02:00,60.0,-99.9,30.09,NNW,330,6.0,8.0,-999,-99.99,,,-99.99,,2013-05-27 18:02:00,
2013-05-27 11:11:00,61.0,-99.9,30.09,North,351,6.0,8.0,-999,-99.99,,,-99.99,,2013-05-27 18:11:00,
2013-05-27 11:22:00,61.0,-99.9,30.09,SSW,203,8.0,9.0,-999,-99.99,,,-99.99,,2013-05-27 18:22:00,
2013-05-27 11:42:00,59.0,-99.9,30.10,SSW,201,10.0,13.0,-999,-99.99,,,-99.99,,2013-05-27 18:42:00,
2013-05-27 11:52:00,58.0,-99.9,30.11,SW,227,7.0,13.0,-999,-99.99,,,-99.99,,2013-05-27 18:52:00,
2013-05-27 12:01:00,58.0,-99.9,30.11,SW,224,9.0,12.0,-999,-99.99,,,-99.99,,2013-05-27 19:01:00,
2013-05-27 12:11:00,58.0,-99.9,30.12,SW,221,6.0,12.0,-999,-99.99,,,-99.99,,2013-05-27 19:11:00,
2013-05-27 12:22:00,59.0,-99.9,30.11,SSW,210,5.0,9.0,-999,-99.99,,,-99.99,,2013-05-27 19:22:00,
2013-05-27 12:32:00,59.0,-99.9,30.11,SW,228,3.0,7.0,-999,-99.99,,,-99.99,,2013-05-27 19:32:00,
2013-05-27 12:42:00,59.0,-99.9,30.11,SW,231,3.0,7.0,-999,-99.99,,,-99.99,,2013-05-27 19:42:00,
2013-05-27 12:52:00,59.0,-99.9,30.12,SW,221,5.0,7.0,-999,-99.99,,,-99.99,,2013-05-27 19:52:00,
2013-05-27 13:02:00,59.0,-99.9,30.12,West,259,3.0,7.0,-999,-99.99,,,-99.99,,2013-05-27 20:02:00,
2013-05-27 13:11:00,58.0,-99.9,30.12,SW,222,5.0,9.0,-999,-99.99,,,-99.99,,2013-05-27 20:11:00,
2013-05-27 13:22:00,58.0,-99.9,30.12,SW,225,7.0,10.0,-999,-99.99,,,-99.99,,2013-05-27 20:22:00,
2013-05-27 13:32:00,58.0,-99.9,30.12,SW,223,6.0,10.0,-999,-99.99,,,-99.99,,2013-05-27 20:32:00,
2013-05-27 13:42:00,59.0,-99.9,30.12,SW,220,7.0,10.0,-999,-99.99,,,-99.99,,2013-05-27 20:42:00,
2013-05-27 13:53:00,59.0,-99.9,30.12,SW,222,10.0,12.0,-999,-99.99,,,-99.99,,2013-05-27 20:53:00,
2013-05-27 14:12:00,59.0,-99.9,30.12,SW,221,10.0,13.0,-999,-99.99,,,-99.99,,2013-05-27 21:12:00,
2013-05-27 14:22:00,59.0,-99.9,30.12,SW,229,8.0,13.0,-999,-99.99,,,-99.99,,2013-05-27 21:22:00,
2013-05-27 14:33:00,58.0,-99.9,30.11,SW,232,8.0,13.0,-999,-99.99,,,-99.99,,2013-05-27 21:33:00,
2013-05-27 14:43:00,59.0,-99.9,30.11,SW,232,8.0,13.0,-999,-99.99,,,-99.99,,2013-05-27 21:43:00,
2013-05-27 14:53:00,58.0,-99.9,30.12,SW,229,9.0,14.0,-999,-99.99,,,-99.99,,2013-05-27 21:53:00,
2013-05-27 15:03:00,59.0,-99.9,30.11,SW,231,8.0,12.0,-999,-99.99,,,-99.99,,2013-05-27 22:03:00,
2013-05-27 15:13:00,58.0,-99.9,30.11,SW,221,8.0,13.0,-999,-99.99,,,-99.99,,2013-05-27 22:13:00,
2013-05-27 15:23:00,59.0,-99.9,30.11,SW,222,11.0,15.0,-999,-99.99,,,-99.99,,2013-05-27 22:23:00,
2013-05-27 15:33:00,59.0,-99.9,30.11,SW,217,10.0,16.0,-999,-99.99,,,-99.99,,2013-05-27 22:33:00,
2013-05-27 15:42:00,58.0,-99.9,30.11,SW,220,8.0,12.0,-999,-99.99,,,-99.99,,2013-05-27 22:42:00,
2013-05-27 15:53:00,59.0,-99.9,30.11,SW,225,8.0,12.0,-999,-99.99,,,-99.99,,2013-05-27 22:53:00,
2013-05-27 16:02:00,59.0,-99.9,30.11,SW,223,8.0,13.0,-999,-99.99,,,-99.99,,2013-05-27 23:02:00,
2013-05-27 16:12:00,59.0,-99.9,30.11,SW,223,8.0,13.0,-999,-99.99,,,-99.99,,2013-05-27 23:12:00,
2013-05-27 16:22:00,58.0,-99.9,30.11,SW,222,9.0,12.0,-999,-99.99,,,-99.99,,2013-05-27 23:22:00,
2013-05-27 16:32:00,59.0,-99.9,30.10,SW,222,10.0,13.0,-999,-99.99,,,-99.99,,2013-05-27 23:32:00,
2013-05-27 16:42:00,58.0,-99.9,30.10,SW,221,9.0,13.0,-999,-99.99,,,-99.99,,2013-05-27 23:42:00,
2013-05-27 16:52:00,59.0,-99.9,30.10,WSW,244,7.0,14.0,-999,-99.99,,,-99.99,,2013-05-27 23:52:00,
2013-05-27 17:01:00,59.0,-99.9,30.09,WSW,238,8.0,14.0,-999,-99.99,,,-99.99,,2013-05-28 00:01:00,
2013-05-27 17:22:00,58.0,-99.9,30.09,SW,222,12.0,15.0,-999,-99.99,,,-99.99,,2013-05-28 00:22:00,
2013-05-27 17:32:00,58.0,-99.9,30.09,SW,227,7.0,16.0,-999,-99.99,,,-99.99,,2013-05-28 00:32:00,
2013-05-27 17:42:00,57.0,-99.9,30.09,SW,222,8.0,12.0,-999,-99.99,,,-99.99,,2013-05-28 00:42:00,
2013-05-27 17:52:00,57.0,-99.9,30.09,SW,227,6.0,11.0,-999,-99.99,,,-99.99,,2013-05-28 00:52:00,
2013-05-27 18:11:00,58.0,-99.9,30.09,SSW,196,7.0,10.0,-999,-99.99,,,-99.99,,2013-05-28 01:11:00,
2013-05-27 18:22:00,57.0,-99.9,30.08,SSW,195,6.0,10.0,-999,-99.99,,,-99.99,,2013-05-28 01:22:00,
2013-05-27 18:32:00,57.0,-99.9,30.07,South,180,8.0,11.0,-999,-99.99,,,-99.99,,2013-05-28 01:32:00,
2013-05-27 18:42:00,56.0,-99.9,30.07,South,189,7.0,12.0,-999,-99.99,,,-99.99,,2013-05-28 01:42:00,
2013-05-27 19:02:00,56.0,-99.9,30.06,South,180,9.0,12.0,-999,-99.99,,,-99.99,,2013-05-28 02:02:00,
2013-05-27 19:11:00,56.0,-99.9,30.06,South,183,9.0,12.0,-999,-99.99,,,-99.99,,2013-05-28 02:11:00,
2013-05-27 19:22:00,56.0,-99.9,30.06,SSW,192,9.0,13.0,-999,-99.99,,,-99.99,,2013-05-28 02:22:00,
2013-05-27 19:32:00,56.0,-99.9,30.06,SSW,197,8.0,12.0,-999,-99.99,,,-99.99,,2013-05-28 02:32:00,
2013-05-27 19:42:00,56.0,-99.9,30.06,South,185,9.0,12.0,-999,-99.99,,,-99.99,,2013-05-28 02:42:00,
2013-05-27 19:52:00,56.0,-99.9,30.05,South,176,8.0,12.0,-999,-99.99,,,-99.99,,2013-05-28 02:52:00,
2013-05-27 20:01:00,56.0,-99.9,30.06,SSW,192,7.0,12.0,-999,-99.99,,,-99.99,,2013-05-28 03:01:00,
2013-05-27 20:11:00,56.0,-99.9,30.06,SSW,197,7.0,10.0,-999,-99.99,,,-99.99,,2013-05-28 03:11:00,
2013-05-27 20:22:00,56.0,-99.9,30.05,SSW,198,7.0,12.0,-999,-99.99,,,-99.99,,2013-05-28 03:22:00,
2013-05-27 20:33:00,56.0,-99.9,30.05,SSW,194,8.0,12.0,-999,-99.99,,,-99.99,,2013-05-28 03:33:00,
2013-05-27 20:53:00,56.0,-99.9,30.04,SSW,194,6.0,13.0,-999,-99.99,,,-99.99,,2013-05-28 03:53:00,
2013-05-27 21:03:00,56.0,-99.9,30.04,SSW,194,6.0,13.0,-999,-99.99,,,-99.99,,2013-05-28 04:03:00,
2013-05-27 21:13:00,56.0,-99.9,30.04,SSW,196,8.0,11.0,-999,-99.99,,,-99.99,,2013-05-28 04:13:00,
2013-05-27 21:23:00,56.0,-99.9,30.04,SSW,199,9.0,13.0,-999,-99.99,,,-99.99,,2013-05-28 04:23:00,
2013-05-27 21:33:00,57.0,-99.9,30.03,SSW,193,8.0,11.0,-999,-99.99,,,-99.99,,2013-05-28 04:33:00,
2013-05-27 21:43:00,57.0,-99.9,30.03,SSW,193,8.0,11.0,-999,-99.99,,,-99.99,,2013-05-28 04:43:00,
2013-05-27 21:53:00,57.0,-99.9,30.02,SSW,195,8.0,12.0,-999,-99.99,,,-99.99,,2013-05-28 04:53:00,
2013-05-27 22:12:00,57.0,-99.9,30.03,SSW,203,9.0,13.0,-999,-99.99,,,-99.99,,2013-05-28 05:12:00,
2013-05-27 22:22:00,57.0,-99.9,30.03,SSW,200,9.0,12.0,-999,-99.99,,,-99.99,,2013-05-28 05:22:00,
2013-05-27 22:33:00,57.0,-99.9,30.04,SSW,207,9.0,13.0,-999,-99.99,,,-99.99,,2013-05-28 05:33:00,
2013-05-27 22:42:00,57.0,-99.9,30.04,SSW,209,7.0,13.0,-999,-99.99,,,-99.99,,2013-05-28 05:42:00,
2013-05-27 22:52:00,57.0,-99.9,30.04,SW,218,9.0,13.0,-999,-99.99,,,-99.99,,2013-05-28 05:52:00,
2013-05-27 23:02:00,57.0,-99.9,30.04,SW,218,7.0,11.0,-999,-99.99,,,-99.99,,2013-05-28 06:02:00,
2013-05-27 23:12:00,57.0,-99.9,30.04,SW,218,7.0,11.0,-999,-99.99,,,-99.99,,2013-05-28 06:12:00,
2013-05-27 23:22:00,57.0,-99.9,30.02,SSW,207,6.0,10.0,-999,-99.99,,,-99.99,,2013-05-28 06:22:00,
2013-05-27 23:32:00,57.0,-99.9,30.02,SSW,201,6.0,10.0,-999,-99.99,,,-99.99,,2013-05-28 06:32:00,
2013-05-27 23:52:00,57.0,-99.9,30.00,SSW,203,6.0,10.0,-999,-99.99,,,-99.99,,2013-05-28 06:52:00,